Regional Weather Roundup
Issued by NWS

Home | Current Version | Previous Version | Graphics & Text | Print | Product List | Glossary Off
Versions: 1 2 3 4 5 6 7 8 9 10 11 12 13 14 15 16 17 18 19 20 21 22 23 24 25 26 27 28 29 30 31 32 33 34 35 36 37 38 39 40 41 42 43 44 45 46 47 48 49 50

000
ASUS43 KDMX 250304
RWRIA

WEATHER ROUNDUP FOR IOWA
NATIONAL WEATHER SERVICE DES MOINES IA
  ISSUED BY NWS QUAD CITIES IA IL
900 PM CST SAT JAN 24 2015

NOTE: "FAIR" INDICATES FEW OR NO CLOUDS BELOW 12,000 FEET WITH NO
SIGNIFICANT WEATHER AND/OR OBSTRUCTIONS TO VISIBILITY.

* - THESE STATIONS ARE NOT NWS STATIONS...THUS NOT UNDER NWS
QUALITY CONTROL.  THEY ALSO DO NOT REPORT WEATHER SUCH
AS PRECIPITATION OR FOG.

IAZ001>003-012>014-020>022-031>034-043>046-250400-
   NORTHWEST IOWA

CITY           SKY/WX    TMP DP  RH WIND       PRES   REMARKS
CARROLL *      CLOUDY    41  36  81 SW9       29.56F WCI  35
CHEROKEE *     DRIZZLE   36  35  99 CALM      29.55F
DENNISON *     CLOUDY    43  36  75 SW5       29.55F
LE MARS *      CLOUDY    37  36  93 SW8       29.56S WCI  31
ORANGE CITY *  CLOUDY    39  34  81 CALM      29.55S
SHELDON *      MIX PCPN  36  36 100 CALM      29.54F
SIOUX CITY     CLOUDY    46  37  71 W9        29.56F
SPENCER        MIX PCPN  38  35  89 W7        29.56F WCI  33
STORM LAKE *   CLOUDY    39  34  81 SW5       29.56F WCI  36
$$

IAZ055>058-069>071-079>083-090>094-250400-
   SOUTHWEST IOWA

CITY           SKY/WX    TMP DP  RH WIND       PRES   REMARKS
ATLANTIC *     MIX PCPN  45  36  70 SW12      29.60F WCI  39
CLARINDA *     LGT RAIN  46  36  66 W10       29.66S
COUNCIL BLFS * CLOUDY    45  41  87 SW9       29.59F WCI  40
CRESTON *      CLOUDY    43  30  61 W7        29.62F WCI  39
HARLAN *       MIX PCPN  43  39  87 SW10      29.62F WCI  37
LAMONI         CLOUDY    48  29  47 SW13      29.62F
RED OAK *      CLOUDY    48  36  61 W12G17    29.63F
SHENANDOAH *   CLOUDY    46  36  66 W9        29.66F
$$

IAZ047>049-059>061-072>074-084-250400-
   CENTRAL IOWA

CITY           SKY/WX    TMP DP  RH WIND       PRES   REMARKS
AMES           CLOUDY    39  31  72 W6        29.58F WCI  35
ANKENY *       CLOUDY    45  30  57 SW5       29.59F
BOONE *        CLOUDY    43  34  70 W7        29.57F WCI  39
CHARITON *     CLOUDY    46  32  57 W7        29.61F
DES MOINES     LGT RAIN  44  33  65 W8        29.60F WCI  39
GRINNELL *     CLOUDY    39  32  73 S5        29.59F WCI  36
KNOXVILLE *    CLOUDY    45  28  53 SW7       29.58F
MARSHALLTOWN   CLOUDY    37  32  82 CALM      29.58F
PELLA *        CLOUDY    45  31  58 SW3       29.61F
PERRY *          N/A     41  37  84 W9        29.58F WCI  35
$$

IAZ004>006-015-016-023>025-035-036-250400-
   NORTH CENTRAL IOWA

CITY           SKY/WX    TMP DP  RH WIND       PRES   REMARKS
ALGONA *       CLOUDY    36  34  93 CALM      29.57F
CLARION *      CLOUDY    34  34 100 CALM      29.57F
ESTHERVILLE    CLOUDY    33  32  96 NE5       29.56S WCI  29
FORT DODGE *   CLOUDY    39  32  75 CALM      29.57F
MASON CITY     CLOUDY    33  31  92 SW3       29.58F
WEBSTER CITY * CLOUDY    37  36  93 W5        29.56F WCI  34
IOWA FALLS *   CLOUDY    36  32  85 S5        29.59F WCI  32
$$

IAZ007>011-017>019-026>030-037>042-050>054-066-250400-
   NORTHEAST IOWA

CITY           SKY/WX    TMP DP  RH WIND       PRES   REMARKS
CEDAR RAPIDS   CLOUDY    34  31  88 SE3       29.60F
CHARLES CITY * CLOUDY    34  34 100 SE6       29.58F WCI  29
CLINTON *      CLOUDY    37  32  81 S6        29.66S WCI  33
DECORAH *      CLOUDY    36  36 100 NE3       29.58F
DUBUQUE        CLOUDY    35  32  88 CALM      29.61F
MONTICELLO *   CLOUDY    36  36 100 CALM      29.61F
OELWEIN *      CLOUDY    36  34  93 SE5       29.60F WCI  32
WATERLOO       MOCLDY    32  30  92 CALM      29.58F
$$

IAZ064-065-067-068-078-250400-
   EAST CENTRAL IOWA

CITY           SKY/WX    TMP DP  RH WIND       PRES   REMARKS
DAVENPORT      CLOUDY    36  31  82 S6        29.64F WCI  31
IOWA CITY      CLOUDY    34  31  88 CALM      29.63F
MT. PLEASANT * CLOUDY    38  32  77 S6        29.63F WCI  34
MUSCATINE *    CLOUDY    36  32  87 SE3       29.63F
QUAD CITIES    CLOUDY    34  30  85 CALM      29.63F
$$

IAZ062-063-075>077-085>089-095>099-250400-
   SOUTHEAST IOWA

CITY           SKY/WX    TMP DP  RH WIND       PRES   REMARKS
BURLINGTON     CLOUDY    40  33  76 SW7       29.63F WCI  35
FAIRFIELD *    CLOUDY    43  30  61 S7        29.62F WCI  39
FORT MADISON * CLOUDY    43  36  75 S7        29.65F WCI  39
KEOKUK *       CLOUDY    45  34  65 SW7       29.64F
OTTUMWA        CLOUDY    42  30  62 S6        29.61F WCI  38
WASHINGTON *   CLOUDY    39  34  81 S9        29.61F WCI  33
$$

ABBREVIATIONS USED IN REMARKS
   TC - TEMPERATURES IN CELSIUS
  WCI - WIND CHILL INDEX
   HX - HEAT INDEX
  VSB - VISIBILITY
$$



USA.gov is the U.S. government's official web portal to all federal, state and local government web resources and services.